When you browse on this site, cookies collect data to enhance your experience and personalize the content and advertising you see.
Visit our Privacy Policy to learn more. By continuing to use the site, you agree to this use of cookies and data.
  • In Hungary
  • List of Countries
  • For 7 days
  • Water Temperature
  • Weather Map
  • News
  • Weather Widgets
  • user-avatar
    Login

    Hourly Weather Litomerice

    Today, 22 February, Saturday

    Time Temperature Precipitation Wind Pressure Humidity
    00:00 +3°C° 0 mm 2 mps 751 mmHg 80%
    01:00 +3°C° 0 mm 2 mps 751 mmHg 81%
    02:00 +2°C° 0 mm 3 mps 750 mmHg 83%
    03:00 +2°C° 0 mm 3 mps 750 mmHg 85%
    04:00 +2°C° 0 mm 3 mps 749 mmHg 87%
    05:00 +2°C° 0 mm 3 mps 749 mmHg 86%
    06:00 +2°C° 0 mm 3 mps 749 mmHg 85%
    07:00 0°C° 0 mm 4 mps 749 mmHg 84%
    08:00 +3°C° 0 mm 4 mps 748 mmHg 76%
    09:00 +3°C° 0 mm 5 mps 748 mmHg 68%
    10:00 +5°C° 0 mm 5 mps 748 mmHg 60%
    11:00 +7°C° 0 mm 6 mps 747 mmHg 55%
    12:00 +8°C° 0 mm 7 mps 747 mmHg 51%
    13:00 +10°C° 0 mm 7 mps 746 mmHg 46%
    14:00 +10°C° 0 mm 7 mps 746 mmHg 47%
    15:00 +10°C° 0 mm 7 mps 745 mmHg 48%
    16:00 +10°C° 0 mm 6 mps 745 mmHg 49%
    17:00 +9°C° 0 mm 6 mps 745 mmHg 51%
    18:00 +8°C° 0 mm 5 mps 745 mmHg 54%
    19:00 +8°C° 0 mm 5 mps 745 mmHg 57%
    20:00 +7°C° 0 mm 5 mps 745 mmHg 61%
    21:00 +7°C° 0 mm 6 mps 745 mmHg 65%
    22:00 +7°C° 0 mm 6 mps 745 mmHg 68%
    23:00 +6°C° 0.1 mm 7 mps 745 mmHg 72%

    Tomorrow, 23 February, Sunday

    Time Temperature Precipitation Wind Pressure Humidity
    00:00 +8°C° 0.1 mm 7 mps 745 mmHg 75%
    01:00 +8°C° 0.1 mm 7 mps 745 mmHg 79%
    02:00 +7°C° 0.4 mm 6 mps 745 mmHg 80%
    03:00 +7°C° 0.4 mm 6 mps 745 mmHg 81%
    04:00 +7°C° 0.4 mm 5 mps 744 mmHg 83%
    05:00 +7°C° 0.2 mm 5 mps 745 mmHg 82%
    06:00 +7°C° 0.2 mm 5 mps 745 mmHg 81%
    07:00 +7°C° 0.2 mm 4 mps 745 mmHg 80%
    08:00 +7°C° 0.1 mm 5 mps 745 mmHg 78%
    09:00 +7°C° 0.1 mm 6 mps 744 mmHg 77%
    10:00 +6°C° 0.1 mm 7 mps 744 mmHg 76%
    11:00 +7°C° 0.4 mm 5 mps 743 mmHg 80%
    12:00 +7°C° 0.4 mm 4 mps 742 mmHg 83%
    13:00 +8°C° 0.4 mm 3 mps 741 mmHg 87%
    14:00 +8°C° 0.6 mm 5 mps 739 mmHg 83%
    15:00 +9°C° 0.6 mm 7 mps 737 mmHg 78%
    16:00 +9°C° 0.6 mm 10 mps 735 mmHg 74%
    17:00 +11°C° 0.3 mm 10 mps 734 mmHg 75%
    18:00 +11°C° 0.3 mm 11 mps 734 mmHg 75%
    19:00 +11°C° 0.3 mm 11 mps 733 mmHg 75%
    20:00 +8°C° 1 mm 12 mps 735 mmHg 74%
    21:00 +7°C° 1 mm 12 mps 737 mmHg 72%
    22:00 +4°C° 1 mm 13 mps 738 mmHg 70%
    23:00 +3°C° 0.1 mm 11 mps 740 mmHg 74%

    Day after tomorrow, 24 February, Monday

    Time Temperature Precipitation Wind Pressure Humidity
    00:00 +2°C° 0.1 mm 9 mps 742 mmHg 77%
    01:00 0°C° 0.1 mm 7 mps 744 mmHg 81%
    02:00 0°C° 0 mm 7 mps 745 mmHg 78%
    03:00 +1°C° 0 mm 6 mps 746 mmHg 76%
    04:00 0°C° 0 mm 5 mps 747 mmHg 73%
    05:00 0°C° 0 mm 5 mps 747 mmHg 75%
    06:00 0°C° 0 mm 4 mps 748 mmHg 77%
    07:00 0°C° 0 mm 4 mps 748 mmHg 79%
    08:00 +1°C° 0 mm 4 mps 748 mmHg 76%
    09:00 +3°C° 0 mm 4 mps 748 mmHg 72%
    10:00 +4°C° 0 mm 4 mps 749 mmHg 68%
    11:00 +5°C° 0 mm 4 mps 748 mmHg 63%
    12:00 +6°C° 0 mm 4 mps 748 mmHg 59%
    13:00 +8°C° 0 mm 3 mps 748 mmHg 54%
    14:00 +8°C° 0 mm 3 mps 747 mmHg 54%
    15:00 +7°C° 0 mm 4 mps 746 mmHg 55%
    16:00 +7°C° 0 mm 4 mps 745 mmHg 55%
    17:00 +6°C° 0 mm 4 mps 744 mmHg 60%
    18:00 +7°C° 0 mm 3 mps 743 mmHg 65%
    19:00 +5°C° 0 mm 3 mps 743 mmHg 70%
    20:00 +5°C° 0 mm 3 mps 742 mmHg 74%
    21:00 +5°C° 0 mm 3 mps 741 mmHg 78%
    22:00 +7°C° 0 mm 3 mps 740 mmHg 81%
    23:00 +6°C° 0 mm 4 mps 739 mmHg 84%

    25 February, Tuesday

    Time Temperature Precipitation Wind Pressure Humidity
    00:00 +7°C° 0 mm 4 mps 739 mmHg 86%
    01:00 +7°C° 0 mm 4 mps 738 mmHg 88%
    02:00 +7°C° 0 mm 4 mps 738 mmHg 87%
    03:00 +7°C° 0 mm 4 mps 737 mmHg 85%
    04:00 +7°C° 0 mm 5 mps 736 mmHg 84%
    05:00 +7°C° 0.1 mm 4 mps 736 mmHg 84%
    06:00 +7°C° 0.1 mm 4 mps 736 mmHg 85%
    07:00 +7°C° 0.1 mm 4 mps 735 mmHg 85%
    08:00 +8°C° 0.1 mm 5 mps 735 mmHg 81%
    09:00 +8°C° 0.1 mm 5 mps 735 mmHg 78%
    10:00 +9°C° 0.1 mm 6 mps 735 mmHg 74%
    11:00 +9°C° 0.2 mm 6 mps 734 mmHg 76%
    12:00 +8°C° 0.2 mm 6 mps 734 mmHg 78%
    13:00 +8°C° 0.2 mm 6 mps 734 mmHg 81%
    14:00 +8°C° 0.3 mm 7 mps 733 mmHg 74%
    15:00 +8°C° 0.3 mm 7 mps 733 mmHg 68%
    16:00 +7°C° 0.3 mm 8 mps 733 mmHg 61%
    17:00 +7°C° 0 mm 6 mps 733 mmHg 64%
    18:00 +6°C° 0 mm 5 mps 733 mmHg 67%
    19:00 +4°C° 0 mm 3 mps 733 mmHg 70%
    20:00 +4°C° 0 mm 3 mps 733 mmHg 73%
    21:00 +3°C° 0 mm 3 mps 732 mmHg 75%
    22:00 +3°C° 0 mm 3 mps 732 mmHg 77%
    23:00 +3°C° 0 mm 3 mps 732 mmHg 78%

    26 February, Wednesday

    Time Temperature Precipitation Wind Pressure Humidity
    00:00 +1°C° 0 mm 4 mps 731 mmHg 80%
    01:00 +1°C° 0 mm 4 mps 731 mmHg 81%
    02:00 +1°C° 0 mm 4 mps 730 mmHg 81%
    03:00 +1°C° 0 mm 4 mps 730 mmHg 82%
    04:00 +1°C° 0 mm 4 mps 729 mmHg 82%
    05:00 +1°C° 0 mm 5 mps 728 mmHg 83%
    06:00 +1°C° 0 mm 5 mps 728 mmHg 83%
    07:00 +1°C° 0 mm 6 mps 727 mmHg 84%
    08:00 0°C° 0.1 mm 7 mps 727 mmHg 75%
    09:00 +1°C° 0.1 mm 8 mps 728 mmHg 66%
    10:00 +1°C° 0.1 mm 9 mps 728 mmHg 58%
    11:00 +2°C° 0 mm 9 mps 728 mmHg 53%
    12:00 +2°C° 0 mm 9 mps 728 mmHg 47%
    13:00 +3°C° 0 mm 9 mps 728 mmHg 42%
    14:00 +3°C° 0 mm 9 mps 728 mmHg 44%
    15:00 +2°C° 0 mm 9 mps 728 mmHg 46%
    16:00 +2°C° 0 mm 8 mps 729 mmHg 48%
    17:00 +2°C° 0 mm 7 mps 729 mmHg 56%
    18:00 +1°C° 0 mm 5 mps 730 mmHg 64%
    19:00 0°C° 0 mm 4 mps 731 mmHg 73%
    20:00 0°C° 0.1 mm 4 mps 732 mmHg 77%
    21:00 0°C° 0.1 mm 4 mps 733 mmHg 81%
    22:00 -1°C° 0.1 mm 4 mps 733 mmHg 85%
    23:00 0°C° 0 mm 4 mps 733 mmHg 84%

    27 February, Thursday

    Time Temperature Precipitation Wind Pressure Humidity
    00:00 0°C° 0 mm 5 mps 734 mmHg 82%
    01:00 0°C° 0 mm 5 mps 734 mmHg 81%
    02:00 0°C° 0.1 mm 5 mps 734 mmHg 84%
    03:00 0°C° 0.1 mm 5 mps 734 mmHg 87%
    04:00 -2°C° 0.1 mm 6 mps 735 mmHg 90%
    05:00 -2°C° 0.1 mm 6 mps 735 mmHg 87%
    06:00 -2°C° 0.1 mm 6 mps 736 mmHg 84%
    07:00 -2°C° 0.1 mm 6 mps 736 mmHg 82%
    08:00 -1°C° 0 mm 7 mps 737 mmHg 79%
    09:00 0°C° 0 mm 7 mps 738 mmHg 76%
    10:00 0°C° 0 mm 8 mps 738 mmHg 73%
    11:00 +1°C° 0.1 mm 8 mps 739 mmHg 70%
    12:00 +1°C° 0.1 mm 8 mps 739 mmHg 67%
    13:00 +2°C° 0.1 mm 8 mps 739 mmHg 64%
    14:00 +3°C° 0.1 mm 7 mps 740 mmHg 63%
    15:00 +3°C° 0.1 mm 7 mps 740 mmHg 62%
    16:00 +3°C° 0.1 mm 6 mps 740 mmHg 61%
    17:00 +2°C° 0 mm 5 mps 740 mmHg 67%
    18:00 +1°C° 0 mm 4 mps 740 mmHg 73%
    19:00 +1°C° 0 mm 3 mps 740 mmHg 79%
    20:00 +1°C° 0 mm 2 mps 740 mmHg 82%
    21:00 +1°C° 0 mm 2 mps 740 mmHg 84%
    22:00 -1°C° 0 mm 2 mps 740 mmHg 87%
    23:00 -1°C° 0 mm 2 mps 740 mmHg 86%
    Show more